Back to catalog

STARLINK-37588

AliveCommunicationsVLEO
NORAD 69842·PAYLOAD·🇺🇸 United States

Launched Jul 5, 2026 from Cape Canaveral Space Force Station

Loading…

Next Passes (next 24 hours)

TLE

FreshSource: CelesTrak SupGP

Epoch: Sep 14, 2026, 22:33 UTC

1 69842C 26154Z   26257.94006944 -.00027643  00000+0 -81803-3 0  2578
2 69842  53.1588 357.6236 0001056  90.6489 336.9335 15.34354576    17

Track STARLINK-37588 in real time with AllMySat

Download on the App Store